�N����,����,�~����,�C��,���x,�C��,����,���ϕ���,�ő�u�ԕ���,�ő厞����,���˗�,�I�_���x,�n�����x,�ő啗���N��,DTYPE
"17/05/19","00:10",0.0,14.0,57.9,1010.2,321.0,2.0,2.8,320.5,0.00,5.9,17.6,"00:05:12",1
"17/05/19","00:20",0.0,14.2,57.6,1010.4,326.3,2.6,4.3,322.8,0.00,6.0,17.7,"00:16:48",1
"17/05/19","00:30",0.0,14.1,57.7,1010.4,336.0,2.2,3.5,340.4,0.00,5.9,17.4,"00:28:08",1
"17/05/19","00:40",0.0,13.9,58.8,1010.7,332.0,2.6,3.5,337.4,0.00,6.0,17.4,"00:31:20",1
"17/05/19","00:50",0.0,13.7,59.4,1010.4,328.2,2.5,4.3,320.2,0.00,6.0,17.4,"00:47:20",1
"17/05/19","01:00",0.0,13.6,59.7,1010.4,312.5,1.8,3.4,315.3,0.00,6.0,17.2,"00:59:36",1
"17/05/19","01:10",0.0,13.4,60.8,1010.4,300.7,2.1,3.6,333.5,0.00,6.0,17.1,"01:02:00",1
"17/05/19","01:20",0.0,13.3,61.4,1010.2,318.3,2.6,3.4,326.6,0.00,6.1,17.1,"01:17:12",1
"17/05/19","01:30",0.0,13.2,62.1,1010.4,326.7,2.8,4.1,316.2,0.00,6.1,17.0,"01:26:16",1
"17/05/19","01:40",0.0,13.1,63.0,1010.4,328.2,2.6,4.1,334.2,0.00,6.3,16.9,"01:30:08",1
"17/05/19","01:50",0.0,13.1,63.0,1010.4,322.1,2.5,4.5,323.5,0.00,6.3,16.7,"01:48:24",1
"17/05/19","02:00",0.0,13.1,63.2,1010.7,298.2,2.0,4.0,324.7,0.00,6.3,16.7,"01:52:02",1
"17/05/19","02:10",0.0,12.8,63.8,1010.7,295.7,1.6,3.4,327.4,0.00,6.2,16.7,"02:06:56",1
"17/05/19","02:20",0.0,12.6,64.2,1010.4,300.4,1.3,2.1,324.9,0.00,6.1,16.7,"02:13:28",1
"17/05/19","02:30",0.0,12.2,67.8,1010.4,308.9,0.8,1.7,353.3,0.00,6.5,16.5,"02:23:54",1
"17/05/19","02:40",0.0,11.5,69.2,1010.7,285.7,1.1,1.8,304.7,0.00,6.1,16.6,"02:38:24",1
"17/05/19","02:50",0.0,11.3,70.8,1010.9,300.0,1.2,1.7,317.7,0.00,6.2,16.4,"02:42:36",1
"17/05/19","03:00",0.0,11.3,70.7,1010.4,282.5,1.5,2.1,263.5,0.00,6.2,16.4,"02:57:56",1
"17/05/19","03:10",0.0,11.4,70.2,1010.4,292.1,1.3,1.9,315.0,0.00,6.2,16.1,"03:01:50",1
"17/05/19","03:20",0.0,11.4,70.8,1010.2,304.9,1.7,2.5,317.6,0.00,6.3,16.3,"03:10:58",1
"17/05/19","03:30",0.0,11.2,71.1,1010.4,298.2,1.3,2.0,311.0,0.00,6.2,16.2,"03:27:54",1
"17/05/19","03:40",0.0,11.3,71.2,1010.7,280.3,1.1,1.6,268.4,0.00,6.3,16.2,"03:30:24",1
"17/05/19","03:50",0.0,11.1,71.4,1010.7,290.7,1.3,1.6,296.8,0.00,6.2,15.8,"03:43:18",1
"17/05/19","04:00",0.0,10.9,73.0,1010.7,307.3,1.2,2.2,310.8,0.00,6.3,15.8,"03:59:24",1
"17/05/19","04:10",0.0,10.2,76.4,1010.7,319.0,1.8,2.6,318.4,0.00,6.3,15.9,"04:00:32",1
"17/05/19","04:20",0.0,9.8,79.5,1011.2,309.5,1.0,1.4,321.9,0.00,6.5,15.8,"04:10:08",1
"17/05/19","04:30",0.0,9.6,80.7,1010.7,317.5,1.6,2.4,318.6,0.00,6.5,15.7,"04:25:24",1
"17/05/19","04:40",0.0,9.5,81.2,1010.7,302.3,1.1,1.8,320.8,0.00,6.5,15.4,"04:38:00",1
"17/05/19","04:50",0.0,9.6,82.3,1010.9,311.3,1.5,1.8,322.6,0.00,6.8,15.4,"04:42:20",1
"17/05/19","05:00",0.0,9.5,82.0,1011.2,294.5,1.1,1.4,310.7,0.00,6.6,15.3,"04:59:02",1
"17/05/19","05:10",0.0,9.7,81.8,1011.2,306.0,1.3,2.0,321.7,0.00,6.8,15.4,"05:03:32",1
"17/05/19","05:20",0.0,9.9,81.4,1011.4,306.8,1.1,1.8,309.5,0.00,6.9,15.2,"05:17:12",1
"17/05/19","05:30",0.0,10.0,81.2,1011.4,324.5,1.6,2.6,334.4,0.00,7.0,15.4,"05:29:10",1
"17/05/19","05:40",0.0,9.9,81.1,1011.4,321.9,1.8,2.2,315.3,0.00,6.9,15.4,"05:30:32",1
"17/05/19","05:50",0.0,10.0,81.7,1011.6,314.8,1.5,1.8,319.3,0.00,7.1,15.3,"05:40:16",1
"17/05/19","06:00",0.0,10.2,82.7,1011.9,298.0,1.0,1.2,309.8,0.00,7.4,15.1,"05:52:02",1
"17/05/19","06:10",0.0,10.6,83.3,1011.9,296.5,0.8,1.4,312.7,0.01,7.9,15.2,"06:03:06",1
"17/05/19","06:20",0.0,11.8,81.1,1011.9,337.7,0.5,1.4,336.1,0.03,8.7,15.2,"06:19:36",1
"17/05/19","06:30",0.2,13.2,77.1,1012.1,330.7,1.0,1.2,336.3,0.04,9.3,15.0,"06:21:28",1
"17/05/19","06:40",0.0,14.6,72.4,1012.6,338.3,0.3,0.8,309.3,0.06,9.7,15.5,"06:30:16",1
"17/05/19","06:50",0.0,14.9,66.6,1012.6,338.6,0.8,1.8,340.8,0.08,8.8,15.7,"06:45:04",1
"17/05/19","07:00",0.0,15.6,64.6,1012.8,323.8,1.0,1.4,328.2,0.11,9.0,15.6,"06:54:08",1
"17/05/19","07:10",0.0,17.0,58.3,1012.6,325.0,0.6,1.3,331.8,0.13,8.8,15.7,"07:09:04",1
"17/05/19","07:20",0.0,17.3,57.4,1013.0,331.5,0.8,1.9,332.8,0.16,8.9,15.9,"07:16:56",1
"17/05/19","07:30",0.0,17.8,55.2,1012.8,318.8,0.6,1.8,347.7,0.18,8.7,16.2,"07:20:16",1
"17/05/19","07:40",0.0,18.0,53.2,1012.8,228.0,0.3,0.9,205.9,0.21,8.4,16.0,"07:36:32",1
"17/05/19","07:50",0.0,18.8,50.1,1012.6,170.3,0.2,0.8,117.6,0.24,8.2,16.4,"07:43:36",1
"17/05/19","08:00",0.0,19.5,46.9,1012.6,229.7,0.2,1.0,134.1,0.26,7.9,16.5,"07:51:44",1
"17/05/19","08:10",0.0,20.2,44.1,1012.6,103.5,0.3,1.1,155.4,0.29,7.6,16.7,"08:05:52",1
"17/05/19","08:20",0.0,20.9,43.0,1012.6,192.9,0.2,0.8,106.4,0.32,7.9,16.7,"08:16:40",1
"17/05/19","08:30",0.0,21.0,40.5,1012.3,225.2,0.7,2.4,189.1,0.34,7.1,17.2,"08:28:48",1
"17/05/19","08:40",0.0,21.5,42.7,1012.3,165.2,0.7,2.0,129.6,0.37,8.3,17.4,"08:38:08",1
"17/05/19","08:50",0.0,22.2,42.6,1011.9,161.2,0.6,1.9,175.6,0.39,8.9,17.7,"08:49:52",1
"17/05/19","09:00",0.0,22.1,41.2,1011.6,142.3,0.8,2.5,230.4,0.41,8.4,17.9,"08:59:52",1
"17/05/19","09:10",0.0,22.3,41.3,1011.6,145.7,1.3,2.5,177.2,0.43,8.6,18.3,"09:02:00",1
"17/05/19","09:20",0.0,22.2,42.8,1011.4,169.7,1.6,3.6,208.9,0.45,9.0,18.4,"09:16:24",1
"17/05/19","09:30",0.0,22.7,43.5,1011.2,179.5,1.6,2.8,180.2,0.47,9.7,18.7,"09:24:08",1
"17/05/19","09:40",0.0,23.1,41.5,1010.9,175.3,1.2,2.7,211.0,0.49,9.4,19.0,"09:38:16",1
"17/05/19","09:50",0.0,23.3,41.8,1010.9,182.2,1.8,3.6,226.9,0.51,9.6,19.3,"09:45:28",1
"17/05/19","10:00",0.0,23.8,40.4,1010.9,176.3,1.6,3.2,164.5,0.53,9.6,19.6,"09:53:20",1
"17/05/19","10:10",0.0,24.1,41.0,1010.4,165.7,1.6,2.9,137.4,0.54,10.1,20.0,"10:03:20",1
"17/05/19","10:20",0.0,24.2,38.9,1010.0,179.2,1.1,2.9,155.0,0.56,9.4,20.2,"10:17:44",1
"17/05/19","10:30",0.0,24.9,41.7,1010.2,157.3,1.3,2.8,149.5,0.57,11.1,20.5,"10:23:44",1
"17/05/19","10:40",0.0,24.9,43.2,1010.0,160.5,1.8,3.2,187.0,0.58,11.6,20.9,"10:31:36",1
"17/05/19","10:50",0.0,25.4,41.3,1010.4,141.8,1.5,3.2,173.5,0.59,11.4,21.4,"10:45:36",1
"17/05/19","11:00",0.0,25.9,40.0,1010.0,177.9,1.3,3.3,135.6,0.60,11.3,21.5,"10:51:28",1
"17/05/19","11:10",0.0,25.9,41.1,1010.0,157.5,1.6,4.1,156.6,0.61,11.7,21.9,"11:02:32",1
"17/05/19","11:20",0.0,26.1,40.2,1010.0,148.6,1.7,4.0,115.0,0.62,11.6,22.1,"11:14:00",1
"17/05/19","11:30",0.0,26.3,40.0,1010.0,125.5,1.3,2.6,122.0,0.62,11.7,22.5,"11:27:28",1
"17/05/19","11:40",0.0,26.6,41.4,1009.3,144.6,1.8,3.6,180.4,0.62,12.5,22.5,"11:37:12",1
"17/05/19","11:50",0.0,27.2,39.6,1009.0,138.9,1.6,3.3,180.6,0.63,12.3,22.8,"11:42:08",1
"17/05/19","12:00",0.0,27.9,40.0,1009.3,130.0,1.2,2.5,186.9,0.63,13.1,23.1,"11:52:40",1
"17/05/19","12:10",0.0,27.8,36.3,1009.3,141.7,1.7,3.7,165.0,0.63,11.5,23.3,"12:06:00",1
"17/05/19","12:20",0.0,28.2,35.9,1009.0,100.2,1.2,3.4,131.1,0.63,11.7,23.6,"12:12:56",1
"17/05/19","12:30",0.0,29.1,34.8,1009.7,130.0,1.1,2.8,126.9,0.63,12.0,23.8,"12:26:24",1
"17/05/19","12:40",0.0,28.7,33.8,1009.0,147.4,1.8,5.4,176.1,0.62,11.3,24.1,"12:38:08",1
"17/05/19","12:50",0.0,28.8,35.0,1008.8,153.9,2.2,5.7,174.8,0.62,11.9,24.2,"12:42:40",1
"17/05/19","13:00",0.0,28.3,33.8,1008.8,171.8,2.5,4.8,195.6,0.61,10.9,24.3,"12:55:04",1
"17/05/19","13:10",0.0,28.7,33.6,1008.8,155.9,1.8,4.0,189.6,0.61,11.2,24.0,"13:00:32",1
"17/05/19","13:20",0.0,28.8,30.3,1008.8,150.5,2.3,7.1,217.1,0.61,9.7,23.9,"13:19:44",1
"17/05/19","13:30",0.0,29.1,30.6,1008.8,261.4,1.7,4.9,228.3,0.60,10.1,23.8,"13:20:24",1
"17/05/19","13:40",0.0,29.0,32.2,1008.3,182.5,2.1,4.9,169.5,0.59,10.8,23.6,"13:35:52",1
"17/05/19","13:50",0.0,29.0,25.8,1008.8,208.3,2.2,3.9,221.5,0.59,7.5,23.9,"13:46:32",1
"17/05/19","14:00",0.0,29.5,29.3,1008.3,223.5,1.5,4.0,231.1,0.58,9.8,23.7,"13:54:48",1
"17/05/19","14:10",0.0,30.0,26.4,1008.6,329.7,1.8,4.4,325.5,0.56,8.7,23.7,"14:06:56",1
"17/05/19","14:20",0.0,30.3,30.3,1008.3,93.7,1.0,2.2,309.4,0.54,11.0,23.8,"14:11:20",1
"17/05/19","14:30",0.0,30.2,28.3,1008.1,71.0,1.2,2.7,317.1,0.53,9.9,23.9,"14:29:44",1
"17/05/19","14:40",0.0,30.1,27.4,1008.3,254.8,1.5,2.9,167.4,0.52,9.3,24.0,"14:36:16",1
"17/05/19","14:50",0.0,29.4,27.4,1008.1,227.2,1.8,4.2,232.5,0.50,8.7,24.1,"14:42:24",1
"17/05/19","15:00",0.0,29.7,28.5,1007.6,227.0,1.3,3.1,219.5,0.48,9.6,23.8,"14:59:12",1
"17/05/19","15:10",0.0,29.6,30.5,1007.8,220.8,2.2,5.0,222.8,0.46,10.5,24.4,"15:01:04",1
"17/05/19","15:20",0.0,29.5,32.2,1007.4,248.7,2.1,4.1,197.9,0.43,11.2,24.2,"15:12:32",1
"17/05/19","15:30",0.0,29.2,32.3,1007.1,223.5,2.0,4.4,220.9,0.40,11.0,24.0,"15:23:36",1
"17/05/19","15:40",0.0,28.9,32.0,1007.1,207.7,2.8,4.9,225.7,0.38,10.6,24.2,"15:36:16",1
"17/05/19","15:50",0.0,29.2,31.7,1006.9,210.2,2.5,5.4,211.6,0.36,10.7,24.1,"15:46:08",1
"17/05/19","16:00",0.0,29.4,32.2,1006.9,231.5,1.8,4.1,211.8,0.34,11.1,24.0,"15:50:56",1
"17/05/19","16:10",0.0,29.5,32.7,1006.7,206.5,2.0,4.4,198.9,0.32,11.5,24.1,"16:04:24",1
"17/05/19","16:20",0.0,29.5,31.2,1006.4,232.3,1.8,4.3,231.4,0.29,10.7,24.0,"16:11:36",1
"17/05/19","16:30",0.0,29.1,31.6,1006.4,229.5,2.2,4.9,207.1,0.27,10.6,24.0,"16:21:52",1
"17/05/19","16:40",0.0,29.0,32.4,1006.7,196.1,2.2,4.7,204.7,0.24,10.9,24.0,"16:38:16",1
"17/05/19","16:50",0.0,28.7,31.9,1006.2,178.9,2.5,5.1,199.0,0.22,10.4,23.9,"16:48:40",1
"17/05/19","17:00",0.0,28.7,32.3,1006.2,193.8,2.5,5.5,231.0,0.19,10.6,23.7,"16:55:04",1
"17/05/19","17:10",0.0,28.3,31.5,1006.0,211.5,2.6,4.7,210.6,0.17,9.8,23.6,"17:01:44",1
"17/05/19","17:20",0.0,28.0,31.2,1006.4,195.8,3.0,4.7,204.9,0.11,9.4,23.5,"17:16:40",1
"17/05/19","17:30",0.0,27.9,32.2,1006.4,215.1,2.2,5.2,216.1,0.02,9.8,23.4,"17:25:20",1
"17/05/19","17:40",0.0,27.9,29.3,1006.2,231.7,1.5,3.2,208.5,0.01,8.4,23.5,"17:39:28",1
"17/05/19","17:50",0.0,27.8,30.6,1006.2,216.6,1.2,2.6,226.2,0.01,9.0,23.4,"17:43:44",1
"17/05/19","18:00",0.0,27.5,29.5,1006.4,224.7,1.5,2.9,230.5,0.01,8.2,23.4,"17:57:12",1
"17/05/19","18:10",0.0,27.3,29.4,1006.4,263.2,1.0,2.5,250.6,0.01,8.0,23.2,"18:01:12",1
"17/05/19","18:20",0.0,26.9,29.0,1007.1,263.2,1.2,2.9,234.3,0.00,7.4,22.9,"18:17:28",1
"17/05/19","18:30",0.0,26.3,29.8,1007.1,252.7,1.1,2.6,332.2,0.00,7.3,23.0,"18:21:36",1
"17/05/19","18:40",0.0,25.8,31.4,1007.4,269.1,0.8,2.1,234.7,0.00,7.6,22.7,"18:34:16",1
"17/05/19","18:50",0.0,25.3,31.7,1007.6,272.3,1.1,3.1,304.4,0.00,7.3,22.7,"18:43:44",1
"17/05/19","19:00",0.0,24.8,31.4,1007.4,287.2,0.6,1.2,290.9,0.00,6.8,22.4,"18:51:12",1
"17/05/19","19:10",0.0,24.0,39.3,1008.1,343.6,1.0,2.4,332.1,0.00,9.4,22.3,"19:05:12",1
"17/05/19","19:20",0.0,22.7,41.3,1008.1,332.0,0.8,2.0,341.4,0.00,8.9,22.1,"19:10:40",1
"17/05/19","19:30",0.0,21.9,41.7,1008.3,344.8,0.7,1.2,356.2,0.00,8.4,21.9,"19:20:32",1
"17/05/19","19:40",0.0,21.5,43.5,1008.8,335.5,1.2,2.1,333.9,0.00,8.6,21.8,"19:37:44",1
"17/05/19","19:50",0.0,21.1,45.5,1008.6,351.4,1.1,2.4,340.1,0.00,8.9,21.7,"19:46:32",1
"17/05/19","20:00",0.0,20.5,47.2,1008.8,326.4,0.7,1.3,290.9,0.00,8.9,21.4,"19:55:12",1
"17/05/19","20:10",0.0,19.9,50.8,1009.0,321.0,1.5,2.2,336.4,0.00,9.5,21.4,"20:02:08",1
"17/05/19","20:20",0.0,19.9,52.3,1009.0,327.6,1.7,3.2,338.7,0.00,9.9,21.2,"20:14:40",1
"17/05/19","20:30",0.0,20.0,51.6,1009.5,327.9,2.6,3.6,337.0,0.00,9.8,21.1,"20:27:04",1
"17/05/19","20:40",0.0,19.7,54.1,1009.5,24.0,1.1,2.8,333.9,0.00,10.2,20.9,"20:31:28",1
"17/05/19","20:50",0.0,18.9,55.5,1009.7,312.9,1.2,1.9,315.6,0.00,9.8,20.8,"20:45:20",1
"17/05/19","21:00",0.0,18.7,57.0,1010.0,294.2,1.0,1.7,264.7,0.00,10.1,20.6,"20:52:16",1
"17/05/19","21:10",0.0,18.4,58.4,1010.4,296.9,1.2,2.1,264.1,0.00,10.1,20.5,"21:08:16",1
"17/05/19","21:20",0.0,18.0,60.4,1010.4,322.4,1.5,2.1,335.8,0.00,10.3,20.1,"21:15:04",1
"17/05/19","21:30",0.0,18.0,60.6,1010.2,311.7,1.7,3.2,317.3,0.00,10.3,20.1,"21:26:56",1
"17/05/19","21:40",0.0,17.9,60.8,1010.4,296.6,1.0,1.7,325.0,0.00,10.3,20.1,"21:36:16",1
"17/05/19","21:50",0.0,17.8,61.4,1010.7,324.0,2.2,4.0,336.3,0.00,10.3,20.0,"21:40:02",1
"17/05/19","22:00",0.0,17.9,60.6,1010.7,308.4,2.1,5.2,334.6,0.00,10.2,19.8,"21:55:44",1
"17/05/19","22:10",0.0,17.6,60.7,1010.9,299.1,0.7,2.0,310.7,0.00,10.0,19.8,"22:00:24",1
"17/05/19","22:20",0.0,17.2,62.8,1010.9,323.4,1.5,2.2,334.7,0.00,10.1,19.7,"22:17:20",1
"17/05/19","22:30",0.0,17.2,63.2,1011.2,316.1,2.0,3.2,333.7,0.00,10.2,19.7,"22:23:52",1
"17/05/19","22:40",0.0,17.1,63.7,1011.2,307.9,0.7,2.5,334.8,0.00,10.2,19.4,"22:31:04",1
"17/05/19","22:50",0.0,16.3,65.7,1011.2,289.0,0.5,0.8,264.3,0.00,9.9,19.4,"22:45:36",1
"17/05/19","23:00",0.0,15.8,67.6,1011.4,282.6,1.0,2.0,328.2,0.00,9.9,19.2,"22:50:02",1
"17/05/19","23:10",0.0,15.9,67.6,1011.2,301.6,1.3,2.6,331.6,0.00,10.0,19.0,"23:02:16",1
"17/05/19","23:20",0.0,15.9,67.3,1011.6,292.3,0.8,1.9,314.8,0.00,9.9,19.0,"23:15:44",1
"17/05/19","23:30",0.0,15.7,67.6,1011.4,324.4,0.6,1.7,337.0,0.00,9.8,18.8,"23:29:52",1
"17/05/19","23:40",0.0,15.7,67.8,1011.4,339.2,0.7,2.0,324.4,0.00,9.8,18.9,"23:30:56",1
"17/05/19","23:50",0.0,15.4,68.6,1011.4,301.0,0.6,1.4,324.4,0.00,9.7,18.7,"23:46:32",1
"17/05/19","24:00",0.0,15.1,70.1,1011.6,286.9,1.0,1.4,322.3,0.00,9.7,18.5,"23:59:52",1
